Radiosonde details



Informationen :

Serial : S4250879
Type : Vaisala RS41-SG
Date of production : 16.10.2020
Frequency : 401.000MHz
Launchsite : Kaunas
Nearest town : -

Altitude (Max) : 18752m at 2026-09-03 12:24:12
Speed (Max) : 113km/h at altitude 955m

Average speed : 31km/h
Average ascent rate : 6m/s
Average descent rate : -3m/s
Ascent rate (Max) : 11.6m/s
Descent rate (Max): -14.5m/s

First frame :
LY3OO-11 at 2026-09-03 11:32:44 at altitude 884m (OG: 842m)
Last frame :
LY3OO-11 at 2026-09-03 13:16:01 at altitude 9m (OG: -33m)

Flighttime : 1h43m17s
Ascent time : 51m28s
Descent time : 51m49s
Uptime : -
Killtimer : -

Distance (Straight line distance): 5936km

Distance (Route):


Frames : 283


Measurement :

Temperature : -4.1°C
Humidity : 74.9%
Pressure : 0hPa


Vertical profile (SkewT) :


Elevation profile :



Receiving stations :


Receiver Frames First received Last received
LY3OO-11 283 2026-09-03 11:32:44 2026-09-03 13:16:01

Share per receiver :



All frames :


Receiver Date Latitude Longitude Direction Speed Altitude Climb Temperature Humidity Pressure Voltage Killtimer Uptime BKT XDATA
LY3OO-112026-09-03 13:16:0124.51905-36.732430km/h9m0.0m/s-4.1°C74.9%0hPa0V00:00:0000:00:0000:00:00
LY3OO-112026-09-03 13:15:3724.51905-36.732430km/h9m0.0m/s-5.9°C78.3%0hPa0V00:00:0000:00:0000:00:00
LY3OO-112026-09-03 13:15:1624.51905-36.732430km/h9m0.0m/s-7.1°C63.3%0hPa0V00:00:0000:00:0000:00:00
LY3OO-112026-09-03 13:14:5424.51905-36.732430km/h9m0.0m/s-8.7°C61.7%0hPa0V00:00:0000:00:0000:00:00
LY3OO-112026-09-03 13:14:3224.51905-36.732430km/h9m0.0m/s-9.9°C66.1%0hPa0V00:00:0000:00:0000:00:00
LY3OO-112026-09-03 13:14:1024.51905-36.732430km/h9m0.0m/s-11.5°C50.2%0hPa0V00:00:0000:00:0000:00:00
LY3OO-112026-09-03 13:13:4924.51905-36.732430km/h9m0.0m/s-13.1°C43.9%0hPa0V00:00:0000:00:0000:00:00
LY3OO-112026-09-03 13:13:2924.51905-36.732430km/h9m0.0m/s-15.0°C48.0%0hPa0V00:00:0000:00:0000:00:00
LY3OO-112026-09-03 13:13:0624.51905-36.732430km/h9m0.0m/s-16.6°C18.5%0hPa0V00:00:0000:00:0000:00:00
LY3OO-112026-09-03 13:12:3724.51905-36.732430km/h9m0.0m/s-19.7°C41.4%0hPa0V00:00:0000:00:0000:00:00
LY3OO-112026-09-03 13:12:0524.51905-36.732430km/h9m0.0m/s-23.2°C43.1%0hPa0V00:00:0000:00:0000:00:00
LY3OO-112026-09-03 13:10:3924.51905-36.732430km/h9m0.0m/s-29.3°C8.5%0hPa0V00:00:0000:00:0000:00:00
LY3OO-112026-09-03 13:10:1924.51905-36.732430km/h9m0.0m/s-31.5°C9.7%0hPa0V00:00:0000:00:0000:00:00
LY3OO-112026-09-03 13:09:5824.51905-36.732430km/h9m0.0m/s-33.7°C11.7%0hPa0V00:00:0000:00:0000:00:00
LY3OO-112026-09-03 13:09:3824.51905-36.732430km/h9m0.0m/s-36.0°C15.1%0hPa0V00:00:0000:00:0000:00:00
LY3OO-112026-09-03 13:09:1724.51905-36.732430km/h9m0.0m/s-38.4°C20.7%0hPa0V00:00:0000:00:0000:00:00
LY3OO-112026-09-03 13:08:5624.51905-36.732430km/h9m0.0m/s-41.0°C37.1%0hPa0V00:00:0000:00:0000:00:00
LY3OO-112026-09-03 13:08:3624.51905-36.732430km/h9m0.0m/s-43.5°C44.5%0hPa0V00:00:0000:00:0000:00:00
LY3OO-112026-09-03 13:08:1624.51905-36.732430km/h9m0.0m/s-46.1°C59.0%0hPa0V00:00:0000:00:0000:00:00
LY3OO-112026-09-03 13:07:5524.51905-36.732430km/h9m0.0m/s-48.6°C69.9%0hPa0V00:00:0000:00:0000:00:00
LY3OO-112026-09-03 13:07:3524.51905-36.732430km/h9m0.0m/s-51.2°C71.3%0hPa0V00:00:0000:00:0000:00:00
LY3OO-112026-09-03 13:07:1424.51905-36.732430km/h9m0.0m/s-53.4°C52.6%0hPa0V00:00:0000:00:0000:00:00
LY3OO-112026-09-03 13:06:5324.51905-36.732430km/h9m0.0m/s-55.0°C50.8%0hPa0V00:00:0000:00:0000:00:00
LY3OO-112026-09-03 13:06:3324.51905-36.732430km/h9m0.0m/s-55.7°C39.3%0hPa0V00:00:0000:00:0000:00:00
LY3OO-112026-09-03 13:06:1224.51905-36.732430km/h9m0.0m/s-56.4°C33.0%0hPa0V00:00:0000:00:0000:00:00
LY3OO-112026-09-03 13:05:5224.51905-36.732430km/h9m0.0m/s-55.5°C18.6%0hPa0V00:00:0000:00:0000:00:00
LY3OO-112026-09-03 13:05:3124.51905-36.732430km/h9m0.0m/s-51.7°C6.9%0hPa0V00:00:0000:00:0000:00:00
LY3OO-112026-09-03 13:05:1124.51905-36.732430km/h9m0.0m/s-51.9°C6.0%0hPa0V00:00:0000:00:0000:00:00
LY3OO-112026-09-03 13:04:5024.51905-36.732430km/h9m0.0m/s-49.4°C4.5%0hPa0V00:00:0000:00:0000:00:00
LY3OO-112026-09-03 13:04:2924.51905-36.732430km/h9m0.0m/s-48.5°C3.8%0hPa0V00:00:0000:00:0000:00:00
LY3OO-112026-09-03 13:04:0824.51905-36.732430km/h9m0.0m/s-49.0°C3.8%0hPa0V00:00:0000:00:0000:00:00
LY3OO-112026-09-03 13:03:4724.51905-36.732430km/h9m0.0m/s-47.9°C3.5%0hPa0V00:00:0000:00:0000:00:00
LY3OO-112026-09-03 13:03:2724.51905-36.732430km/h9m0.0m/s-48.6°C3.5%0hPa0V00:00:0000:00:0000:00:00
LY3OO-112026-09-03 13:03:0724.51905-36.732430km/h9m0.0m/s-49.0°C3.7%0hPa0V00:00:0000:00:0000:00:00
LY3OO-112026-09-03 13:02:4724.51905-36.732430km/h9m0.0m/s-48.6°C3.6%0hPa0V00:00:0000:00:0000:00:00
LY3OO-112026-09-03 13:02:2624.51905-36.732430km/h9m0.0m/s-48.0°C3.4%0hPa0V00:00:0000:00:0000:00:00
LY3OO-112026-09-03 13:02:0624.51905-36.732430km/h9m0.0m/s-48.4°C3.4%0hPa0V00:00:0000:00:0000:00:00
LY3OO-112026-09-03 13:01:4524.51905-36.732430km/h9m0.0m/s-49.6°C3.6%0hPa0V00:00:0000:00:0000:00:00
LY3OO-112026-09-03 13:01:2524.51905-36.732430km/h9m0.0m/s-50.5°C3.9%0hPa0V00:00:0000:00:0000:00:00
LY3OO-112026-09-03 13:01:0424.51905-36.732430km/h9m0.0m/s-49.3°C3.7%0hPa0V00:00:0000:00:0000:00:00
LY3OO-112026-09-03 13:00:4324.51905-36.732430km/h9m0.0m/s-48.8°C3.6%0hPa0V00:00:0000:00:0000:00:00
LY3OO-112026-09-03 13:00:2224.51905-36.732430km/h9m0.0m/s-48.9°C3.5%0hPa0V00:00:0000:00:0000:00:00
LY3OO-112026-09-03 12:59:4124.51905-36.732430km/h9m0.0m/s-49.2°C3.5%0hPa0V00:00:0000:00:0000:00:00
LY3OO-112026-09-03 12:59:2124.51905-36.732430km/h9m0.0m/s-50.2°C3.7%0hPa0V00:00:0000:00:0000:00:00
LY3OO-112026-09-03 12:59:0024.51905-36.732430km/h9m0.0m/s-51.2°C4.1%0hPa0V00:00:0000:00:0000:00:00
LY3OO-112026-09-03 12:58:4024.51905-36.732430km/h9m0.0m/s-50.6°C4.0%0hPa0V00:00:0000:00:0000:00:00
LY3OO-112026-09-03 12:58:1924.51905-36.732430km/h9m0.0m/s-49.9°C3.9%0hPa0V00:00:0000:00:0000:00:00
LY3OO-112026-09-03 12:57:5924.51905-36.732430km/h9m0.0m/s-48.6°C3.5%0hPa0V00:00:0000:00:0000:00:00
LY3OO-112026-09-03 12:57:3824.51905-36.732430km/h9m0.0m/s-48.4°C3.3%0hPa0V00:00:0000:00:0000:00:00
LY3OO-112026-09-03 12:57:1824.51905-36.732430km/h9m0.0m/s-50.3°C3.7%0hPa0V00:00:0000:00:0000:00:00
LY3OO-112026-09-03 12:56:5824.51905-36.732430km/h9m0.0m/s-50.5°C3.8%0hPa0V00:00:0000:00:0000:00:00
LY3OO-112026-09-03 12:56:3824.51905-36.732430km/h9m0.0m/s-50.6°C3.9%0hPa0V00:00:0000:00:0000:00:00
LY3OO-112026-09-03 12:56:1624.51905-36.732430km/h9m0.0m/s-51.1°C4.0%0hPa0V00:00:0000:00:0000:00:00
LY3OO-112026-09-03 12:55:5624.51905-36.732430km/h9m0.0m/s-51.0°C3.9%0hPa0V00:00:0000:00:0000:00:00
LY3OO-112026-09-03 12:55:3524.51905-36.732430km/h9m0.0m/s-51.1°C3.9%0hPa0V00:00:0000:00:0000:00:00
LY3OO-112026-09-03 12:55:1624.51905-36.732430km/h9m0.0m/s-51.5°C4.2%0hPa0V00:00:0000:00:0000:00:00
LY3OO-112026-09-03 12:54:5424.51905-36.732430km/h9m0.0m/s-50.1°C3.8%0hPa0V00:00:0000:00:0000:00:00
LY3OO-112026-09-03 12:54:3424.51905-36.732430km/h9m0.0m/s-50.5°C3.9%0hPa0V00:00:0000:00:0000:00:00
LY3OO-112026-09-03 12:54:1424.51905-36.732430km/h9m0.0m/s-50.5°C3.8%0hPa0V00:00:0000:00:0000:00:00
LY3OO-112026-09-03 12:53:5324.51905-36.732430km/h9m0.0m/s-50.7°C3.9%0hPa0V00:00:0000:00:0000:00:00
LY3OO-112026-09-03 12:53:3324.51905-36.732430km/h9m0.0m/s-50.2°C3.9%0hPa0V00:00:0000:00:0000:00:00
LY3OO-112026-09-03 12:53:1324.51905-36.732430km/h9m0.0m/s-50.1°C4.0%0hPa0V00:00:0000:00:0000:00:00
LY3OO-112026-09-03 12:52:5324.51905-36.732430km/h9m0.0m/s-49.4°C3.8%0hPa0V00:00:0000:00:0000:00:00
LY3OO-112026-09-03 12:52:3224.51905-36.732430km/h9m0.0m/s-49.3°C3.8%0hPa0V00:00:0000:00:0000:00:00
LY3OO-112026-09-03 12:52:1224.51905-36.732430km/h9m0.0m/s-48.9°C3.9%0hPa0V00:00:0000:00:0000:00:00
LY3OO-112026-09-03 12:51:5224.51905-36.732430km/h9m0.0m/s-47.6°C3.6%0hPa0V00:00:0000:00:0000:00:00
LY3OO-112026-09-03 12:51:3124.51905-36.732430km/h9m0.0m/s-47.3°C3.7%0hPa0V00:00:0000:00:0000:00:00
LY3OO-112026-09-03 12:51:1124.51905-36.732430km/h9m0.0m/s-46.4°C3.3%0hPa0V00:00:0000:00:0000:00:00
LY3OO-112026-09-03 12:50:5024.51905-36.732430km/h9m0.0m/s-47.0°C3.4%0hPa0V00:00:0000:00:0000:00:00
LY3OO-112026-09-03 12:50:0724.51905-36.732430km/h9m0.0m/s-46.3°C3.4%0hPa0V00:00:0000:00:0000:00:00
LY3OO-112026-09-03 12:49:4724.51905-36.732430km/h9m0.0m/s-46.5°C3.4%0hPa0V00:00:0000:00:0000:00:00
LY3OO-112026-09-03 12:49:2724.51905-36.732430km/h9m0.0m/s-46.7°C3.4%0hPa0V00:00:0000:00:0000:00:00
LY3OO-112026-09-03 12:49:0624.51905-36.732430km/h9m0.0m/s-46.7°C3.4%0hPa0V00:00:0000:00:0000:00:00
LY3OO-112026-09-03 12:48:4524.51905-36.732430km/h9m0.0m/s-47.2°C3.5%0hPa0V00:00:0000:00:0000:00:00
LY3OO-112026-09-03 12:48:2424.51905-36.732430km/h9m0.0m/s-47.6°C3.5%0hPa0V00:00:0000:00:0000:00:00
LY3OO-112026-09-03 12:48:0324.51905-36.732430km/h9m0.0m/s-47.6°C3.5%0hPa0V00:00:0000:00:0000:00:00
LY3OO-112026-09-03 12:47:4224.51905-36.732430km/h9m0.0m/s-47.5°C3.5%0hPa0V00:00:0000:00:0000:00:00
LY3OO-112026-09-03 12:47:2224.51905-36.732430km/h9m0.0m/s-47.4°C3.4%0hPa0V00:00:0000:00:0000:00:00
LY3OO-112026-09-03 12:47:0124.51905-36.732430km/h9m0.0m/s-47.7°C3.5%0hPa0V00:00:0000:00:0000:00:00
LY3OO-112026-09-03 12:46:4124.51905-36.732430km/h9m0.0m/s-47.8°C3.5%0hPa0V00:00:0000:00:0000:00:00
LY3OO-112026-09-03 12:46:2124.51905-36.732430km/h9m0.0m/s-48.0°C3.6%0hPa0V00:00:0000:00:0000:00:00
LY3OO-112026-09-03 12:46:0124.51905-36.732430km/h9m0.0m/s-48.5°C3.5%0hPa0V00:00:0000:00:0000:00:00
LY3OO-112026-09-03 12:45:4124.51905-36.732430km/h9m0.0m/s-49.0°C3.8%0hPa0V00:00:0000:00:0000:00:00
LY3OO-112026-09-03 12:45:2124.51905-36.732430km/h9m0.0m/s-48.7°C3.7%0hPa0V00:00:0000:00:0000:00:00
LY3OO-112026-09-03 12:45:0124.51905-36.732430km/h9m0.0m/s-48.5°C3.6%0hPa0V00:00:0000:00:0000:00:00
LY3OO-112026-09-03 12:44:4024.51905-36.732430km/h9m0.0m/s-48.8°C3.7%0hPa0V00:00:0000:00:0000:00:00
LY3OO-112026-09-03 12:44:2024.51905-36.732430km/h9m0.0m/s-49.1°C3.8%0hPa0V00:00:0000:00:0000:00:00
LY3OO-112026-09-03 12:44:0024.51905-36.732430km/h9m0.0m/s-49.0°C3.7%0hPa0V00:00:0000:00:0000:00:00
LY3OO-112026-09-03 12:43:38-18.11570-59.566820km/h272m0.0m/s-49.0°C3.6%0hPa0V00:00:0000:00:0000:00:00
LY3OO-112026-09-03 12:43:17-18.11570-59.566820km/h272m0.0m/s-49.2°C3.7%0hPa0V00:00:0000:00:0000:00:00
LY3OO-112026-09-03 12:42:5754.6954431.899620km/h783m0.0m/s-49.5°C3.5%0hPa0V00:00:0000:00:0000:00:00
LY3OO-112026-09-03 12:42:3754.6954431.899620km/h783m0.0m/s-49.7°C3.5%0hPa0V00:00:0000:00:0000:00:00
LY3OO-112026-09-03 12:42:1654.6948131.90110307°106km/h841m-14.5m/s-50.3°C3.7%0hPa0V00:00:0000:00:0000:00:00
LY3OO-112026-09-03 12:41:5554.6919331.90875294°97km/h935m0.4m/s-49.9°C3.5%0hPa0V00:00:0000:00:0000:00:00
LY3OO-112026-09-03 12:41:3554.6911931.91731260°111km/h955m-0.9m/s-50.0°C3.6%0hPa0V00:00:0000:00:0000:00:00
LY3OO-112026-09-03 12:41:1554.6934931.92534229°104km/h894m-0.0m/s-50.2°C3.7%0hPa0V00:00:0000:00:0000:00:00
LY3OO-112026-09-03 12:40:5454.6978331.92953200°91km/h978m3.8m/s-49.9°C3.5%0hPa0V00:00:0000:00:0000:00:00
LY3OO-112026-09-03 12:40:3354.7031731.92934164°100km/h968m0.1m/s-49.9°C3.5%0hPa0V00:00:0000:00:0000:00:00
LY3OO-112026-09-03 12:40:1354.7072231.92456130°100km/h986m0.6m/s-50.3°C3.6%0hPa0V00:00:0000:00:0000:00:00
LY3OO-112026-09-03 12:39:5254.7091431.9164298°97km/h988m1.0m/s-50.1°C3.5%0hPa0V00:00:0000:00:0000:00:00
LY3OO-112026-09-03 12:39:3154.7083331.9075764°95km/h978m-2.6m/s-50.3°C3.6%0hPa0V00:00:0000:00:0000:00:00
LY3OO-112026-09-03 12:38:0254.6911231.91415271°104km/h932m0.6m/s-50.3°C3.7%0hPa0V00:00:0000:00:0000:00:00
LY3OO-112026-09-03 12:37:3754.6924631.92184241°99km/h955m-0.6m/s-50.2°C3.6%0hPa0V00:00:0000:00:0000:00:00
LY3OO-112026-09-03 12:37:1554.6961931.92854205°99km/h981m1.6m/s-50.0°C3.5%0hPa0V00:00:0000:00:0000:00:00
LY3OO-112026-09-03 12:36:5554.7010831.93027175°97km/h968m1.6m/s-50.3°C3.6%0hPa0V00:00:0000:00:0000:00:00
LY3OO-112026-09-03 12:36:3554.7056931.92703144°102km/h963m-0.1m/s-50.4°C3.7%0hPa0V00:00:0000:00:0000:00:00
LY3OO-112026-09-03 12:36:1454.7087531.91987109°99km/h968m2.7m/s-50.0°C3.6%0hPa0V00:00:0000:00:0000:00:00
LY3OO-112026-09-03 12:35:5454.7090731.9112768°93km/h981m2.3m/s-50.1°C3.6%0hPa0V00:00:0000:00:0000:00:00
LY3OO-112026-09-03 12:35:3354.7064831.9032145°100km/h977m2.8m/s-50.2°C3.6%0hPa0V00:00:0000:00:0000:00:00
LY3OO-112026-09-03 12:35:1254.7019231.8991712°99km/h996m-0.0m/s-50.9°C3.6%0hPa0V00:00:0000:00:0000:00:00
LY3OO-112026-09-03 12:34:5254.6967831.90020340°100km/h971m2.1m/s-51.1°C3.8%0hPa0V00:00:0000:00:0000:00:00
LY3OO-112026-09-03 12:34:3154.6928731.90565306°102km/h956m-2.2m/s-51.2°C3.8%0hPa0V00:00:0000:00:0000:00:00
LY3OO-112026-09-03 12:34:1054.6912031.91414274°99km/h967m1.0m/s-51.3°C3.8%0hPa0V00:00:0000:00:0000:00:00
LY3OO-112026-09-03 12:33:5054.6925331.92275239°100km/h967m-0.8m/s-51.4°C3.8%0hPa0V00:00:0000:00:0000:00:00
LY3OO-112026-09-03 12:33:3054.6960831.92860208°97km/h974m0.6m/s-51.3°C3.8%0hPa0V00:00:0000:00:0000:00:00
LY3OO-112026-09-03 12:32:4954.7058631.92681143°99km/h973m1.6m/s-51.3°C3.7%0hPa0V00:00:0000:00:0000:00:00
LY3OO-112026-09-03 12:32:2754.7087731.91964109°99km/h943m-0.6m/s-51.8°C3.9%0hPa0V00:00:0000:00:0000:00:00
LY3OO-112026-09-03 12:32:0754.7089831.9108777°99km/h986m0.1m/s-51.9°C3.8%0hPa0V00:00:0000:00:0000:00:00
LY3OO-112026-09-03 12:31:2630.60367-95.783730km/h103m0.0m/s-51.3°C4.1%0hPa0V00:00:0000:00:0000:00:00
LY3OO-112026-09-03 12:31:0630.60367-95.783730km/h103m0.0m/s-51.0°C4.0%0hPa0V00:00:0000:00:0000:00:00
LY3OO-112026-09-03 12:30:4630.60367-95.783730km/h103m0.0m/s-50.8°C4.1%0hPa0V00:00:0000:00:0000:00:00
LY3OO-112026-09-03 12:30:2630.60367-95.783730km/h103m0.0m/s-50.3°C3.9%0hPa0V00:00:0000:00:0000:00:00
LY3OO-112026-09-03 12:30:0530.60367-95.783730km/h103m0.0m/s-50.2°C3.9%0hPa0V00:00:0000:00:0000:00:00
LY3OO-112026-09-03 12:28:4352.7351265.275340km/h105m0.0m/s-50.8°C4.0%0hPa0V00:00:0000:00:0000:00:00
LY3OO-112026-09-03 12:28:2054.7657522.136970km/h156m0.0m/s-51.1°C4.1%0hPa0V00:00:0000:00:0000:00:00
LY3OO-112026-09-03 12:28:0054.7657522.136970km/h156m0.0m/s-50.9°C4.2%0hPa0V00:00:0000:00:0000:00:00
LY3OO-112026-09-03 12:27:3854.7657522.136970km/h156m0.0m/s-50.2°C4.0%0hPa0V00:00:0000:00:0000:00:00
LY3OO-112026-09-03 12:27:1854.7657522.136970km/h156m0.0m/s-49.5°C3.9%0hPa0V00:00:0000:00:0000:00:00
LY3OO-112026-09-03 12:26:5749.2390753.919200km/h48m0.0m/s-48.8°C3.8%0hPa0V00:00:0000:00:0000:00:00
LY3OO-112026-09-03 12:26:1554.7390633.472150km/h211m0.0m/s-48.3°C3.6%0hPa0V00:00:0000:00:0000:00:00
LY3OO-112026-09-03 12:25:5554.7390633.472150km/h211m0.0m/s-48.6°C3.6%0hPa0V00:00:0000:00:0000:00:00
LY3OO-112026-09-03 12:25:3454.7951024.369520km/h18752m0.0m/s-48.8°C1.2%0hPa0V00:00:0000:00:0000:00:00
LY3OO-112026-09-03 12:25:1454.7951024.369520km/h18752m0.0m/s-49.8°C1.2%0hPa0V00:00:0000:00:0000:00:00
LY3OO-112026-09-03 12:24:5354.7951024.369520km/h18752m0.0m/s-50.8°C1.3%0hPa0V00:00:0000:00:0000:00:00
LY3OO-112026-09-03 12:24:3254.7951024.369520km/h18752m0.0m/s-50.5°C1.3%0hPa0V00:00:0000:00:0000:00:00
LY3OO-112026-09-03 12:24:1254.7951024.369520km/h18752m0.0m/s-50.7°C1.3%0hPa0V00:00:0000:00:0000:00:00
LY3OO-112026-09-03 12:23:5154.7948424.3681772°33km/h18683m6.9m/s-50.7°C1.3%0hPa0V00:00:0000:00:0000:00:00
LY3OO-112026-09-03 12:23:3054.7942024.3649684°37km/h18535m5.6m/s-50.7°C1.3%0hPa0V00:00:0000:00:0000:00:00
LY3OO-112026-09-03 12:23:1054.7937124.3616474°29km/h18411m6.7m/s-51.2°C1.4%0hPa0V00:00:0000:00:0000:00:00
LY3OO-112026-09-03 12:22:5054.7930924.3592077°26km/h18284m6.3m/s-50.8°C1.3%0hPa0V00:00:0000:00:0000:00:00
LY3OO-112026-09-03 12:22:2854.7928224.3569292°27km/h18153m5.9m/s-51.0°C1.4%0hPa0V00:00:0000:00:0000:00:00
LY3OO-112026-09-03 12:22:0754.7927224.3547291°18km/h18011m5.7m/s-50.8°C1.4%0hPa0V00:00:0000:00:0000:00:00
LY3OO-112026-09-03 12:21:4754.7929024.35336120°15km/h17900m6.0m/s-50.6°C1.4%0hPa0V00:00:0000:00:0000:00:00
LY3OO-112026-09-03 12:21:2754.7934024.35171132°29km/h17775m6.0m/s-50.6°C1.4%0hPa0V00:00:0000:00:0000:00:00
LY3OO-112026-09-03 12:21:0754.7939924.34984115°24km/h17661m5.7m/s-49.8°C1.4%0hPa0V00:00:0000:00:0000:00:00
LY3OO-112026-09-03 12:20:4654.7943924.34807122°26km/h17539m5.6m/s-49.0°C1.3%0hPa0V00:00:0000:00:0000:00:00
LY3OO-112026-09-03 12:20:0454.7955924.3439393°46km/h17283m5.8m/s-48.5°C1.2%0hPa0V00:00:0000:00:0000:00:00
LY3OO-112026-09-03 12:19:4454.7958124.3406488°42km/h17163m6.7m/s-48.8°C1.3%0hPa0V00:00:0000:00:0000:00:00
LY3OO-112026-09-03 12:19:2454.7958224.3370987°33km/h17036m6.4m/s-48.3°C1.3%0hPa0V00:00:0000:00:0000:00:00
LY3OO-112026-09-03 12:19:0454.7954724.3341884°33km/h16925m5.2m/s-48.1°C1.2%0hPa0V00:00:0000:00:0000:00:00
LY3OO-112026-09-03 12:18:4354.7951724.3309186°44km/h16818m5.5m/s-48.2°C1.2%0hPa0V00:00:0000:00:0000:00:00
LY3OO-112026-09-03 12:18:2254.7953724.3277794°31km/h16712m5.3m/s-48.8°C1.3%0hPa0V00:00:0000:00:0000:00:00
LY3OO-112026-09-03 12:18:0154.7956124.3252691°24km/h16594m6.4m/s-48.9°C1.3%0hPa0V00:00:0000:00:0000:00:00
LY3OO-112026-09-03 12:17:4254.7958024.32357109°15km/h16483m8.0m/s-48.8°C1.3%0hPa0V00:00:0000:00:0000:00:00
LY3OO-112026-09-03 12:17:2154.7963724.32136121°38km/h16356m6.7m/s-49.0°C1.3%0hPa0V00:00:0000:00:0000:00:00
LY3OO-112026-09-03 12:17:0054.7970324.31799102°44km/h16239m3.8m/s-49.3°C1.4%0hPa0V00:00:0000:00:0000:00:00
LY3OO-112026-09-03 12:16:4154.7971724.3137589°46km/h16129m5.6m/s-49.1°C1.4%0hPa0V00:00:0000:00:0000:00:00
LY3OO-112026-09-03 12:16:2054.7969624.3097391°44km/h16010m6.2m/s-49.4°C1.5%0hPa0V00:00:0000:00:0000:00:00
LY3OO-112026-09-03 12:16:0054.7970124.3059799°42km/h15887m5.6m/s-49.2°C1.4%0hPa0V00:00:0000:00:0000:00:00
LY3OO-112026-09-03 12:15:4054.7974324.3019495°49km/h15776m6.8m/s-50.3°C1.5%0hPa0V00:00:0000:00:0000:00:00
LY3OO-112026-09-03 12:15:2054.7977924.2975091°47km/h15671m5.4m/s-50.4°C1.5%0hPa0V00:00:0000:00:0000:00:00
LY3OO-112026-09-03 12:15:0054.7976224.2934796°46km/h15554m5.1m/s-50.9°C1.6%0hPa0V00:00:0000:00:0000:00:00
LY3OO-112026-09-03 12:14:3854.7975124.2902889°33km/h15433m7.2m/s-50.9°C1.5%0hPa0V00:00:0000:00:0000:00:00
LY3OO-112026-09-03 12:14:1854.7979124.2870499°40km/h15318m6.2m/s-50.2°C1.5%0hPa0V00:00:0000:00:0000:00:00
LY3OO-112026-09-03 12:13:5854.7986924.28387115°38km/h15201m6.1m/s-49.6°C1.5%0hPa0V00:00:0000:00:0000:00:00
LY3OO-112026-09-03 12:13:3754.7992924.2805699°37km/h15080m5.5m/s-48.8°C1.4%0hPa0V00:00:0000:00:0000:00:00
LY3OO-112026-09-03 12:13:1654.7994724.2769293°35km/h14958m5.6m/s-48.8°C1.5%0hPa0V00:00:0000:00:0000:00:00
LY3OO-112026-09-03 12:12:5754.7994824.2735195°46km/h14849m4.3m/s-48.4°C1.4%0hPa0V00:00:0000:00:0000:00:00
LY3OO-112026-09-03 12:12:3654.7992424.2698683°33km/h14729m5.9m/s-48.3°C1.4%0hPa0V00:00:0000:00:0000:00:00
LY3OO-112026-09-03 12:12:1654.7993624.2666798°42km/h14609m5.5m/s-48.8°C1.5%0hPa0V00:00:0000:00:0000:00:00
LY3OO-112026-09-03 12:11:5554.7997924.26301108°38km/h14498m6.0m/s-48.7°C1.5%0hPa0V00:00:0000:00:0000:00:00
LY3OO-112026-09-03 12:11:3454.8004124.25955103°44km/h14378m5.3m/s-48.7°C1.5%0hPa0V00:00:0000:00:0000:00:00
LY3OO-112026-09-03 12:11:1454.8012824.25557112°46km/h14264m5.7m/s-48.8°C1.5%0hPa0V00:00:0000:00:0000:00:00
LY3OO-112026-09-03 12:10:3354.8033924.24748116°55km/h14019m5.9m/s-47.4°C1.4%0hPa0V00:00:0000:00:0000:00:00
LY3OO-112026-09-03 12:10:1354.8045224.24299111°53km/h13899m4.6m/s-47.3°C1.5%0hPa0V00:00:0000:00:0000:00:00
LY3OO-112026-09-03 12:09:3154.8051324.2325887°64km/h13663m4.7m/s-47.1°C1.4%0hPa0V00:00:0000:00:0000:00:00
LY3OO-112026-09-03 12:09:1054.8049124.2276188°49km/h13549m7.9m/s-47.7°C1.5%0hPa0V00:00:0000:00:0000:00:00
LY3OO-112026-09-03 12:08:4954.8048024.2238098°44km/h13437m4.3m/s-48.2°C1.6%0hPa0V00:00:0000:00:0000:00:00
LY3OO-112026-09-03 12:08:2954.8054624.22014106°37km/h13320m5.3m/s-48.2°C1.6%0hPa0V00:00:0000:00:0000:00:00
LY3OO-112026-09-03 12:08:0754.8062524.21640114°44km/h13197m5.1m/s-48.2°C1.7%0hPa0V00:00:0000:00:0000:00:00
LY3OO-112026-09-03 12:07:4854.8067624.2119999°53km/h13089m3.4m/s-48.3°C1.7%0hPa0V00:00:0000:00:0000:00:00
LY3OO-112026-09-03 12:07:2654.8074724.20720110°49km/h12988m3.7m/s-48.9°C1.7%0hPa0V00:00:0000:00:0000:00:00
LY3OO-112026-09-03 12:07:0654.8080624.2022698°66km/h12882m6.5m/s-48.7°C1.9%0hPa0V00:00:0000:00:0000:00:00
LY3OO-112026-09-03 12:06:4554.8084624.19734100°46km/h12759m5.3m/s-48.5°C1.8%0hPa0V00:00:0000:00:0000:00:00
LY3OO-112026-09-03 12:06:2554.8086224.1929981°42km/h12647m5.1m/s-49.1°C2.0%0hPa0V00:00:0000:00:0000:00:00
LY3OO-112026-09-03 12:06:0454.8089224.18907131°47km/h12533m7.1m/s-49.2°C2.2%0hPa0V00:00:0000:00:0000:00:00
LY3OO-112026-09-03 12:05:4454.8101324.18458113°53km/h12399m11.6m/s-48.8°C2.1%0hPa0V00:00:0000:00:0000:00:00
LY3OO-112026-09-03 12:05:2454.8109924.18116113°49km/h12263m6.4m/s-49.0°C2.3%0hPa0V00:00:0000:00:0000:00:00
LY3OO-112026-09-03 12:05:0354.8118124.17712109°47km/h12131m5.4m/s-48.9°C2.5%0hPa0V00:00:0000:00:0000:00:00
LY3OO-112026-09-03 12:04:4354.8126524.17242104°49km/h12014m6.4m/s-48.9°C2.7%0hPa0V00:00:0000:00:0000:00:00
LY3OO-112026-09-03 12:04:2254.8132524.16827121°49km/h11906m5.0m/s-50.0°C3.1%0hPa0V00:00:0000:00:0000:00:00
LY3OO-112026-09-03 12:04:0254.8138924.16452115°40km/h11789m6.3m/s-51.0°C3.7%0hPa0V00:00:0000:00:0000:00:00
LY3OO-112026-09-03 12:03:4154.8146724.16126110°38km/h11678m5.2m/s-51.6°C5.2%0hPa0V00:00:0000:00:0000:00:00
LY3OO-112026-09-03 12:03:2154.8154624.15765119°47km/h11564m6.9m/s-52.2°C9.4%0hPa0V00:00:0000:00:0000:00:00
LY3OO-112026-09-03 12:03:0054.8168724.15381134°49km/h11444m5.6m/s-54.3°C16.9%0hPa0V00:00:0000:00:0000:00:00
LY3OO-112026-09-03 12:02:4054.8182524.14903112°64km/h11314m5.9m/s-55.6°C24.1%0hPa0V00:00:0000:00:0000:00:00
LY3OO-112026-09-03 12:02:2054.8191924.14408110°60km/h11194m8.0m/s-56.1°C30.7%0hPa0V00:00:0000:00:0000:00:00
LY3OO-112026-09-03 12:01:5954.8205324.13980120°55km/h11066m3.9m/s-56.3°C35.3%0hPa0V00:00:0000:00:0000:00:00
LY3OO-112026-09-03 12:01:3754.8221924.13557128°64km/h10951m4.9m/s-55.9°C33.9%0hPa0V00:00:0000:00:0000:00:00
LY3OO-112026-09-03 12:01:1654.8240324.13144121°57km/h10829m4.8m/s-55.7°C35.2%0hPa0V00:00:0000:00:0000:00:00
LY3OO-112026-09-03 12:00:5654.8258724.12747140°58km/h10731m4.6m/s-55.6°C40.1%0hPa0V00:00:0000:00:0000:00:00
LY3OO-112026-09-03 12:00:3654.8280924.12386138°62km/h10605m3.2m/s-55.0°C38.8%0hPa0V00:00:0000:00:0000:00:00
LY3OO-112026-09-03 12:00:1554.8305224.11970136°71km/h10518m3.1m/s-55.0°C47.8%0hPa0V00:00:0000:00:0000:00:00
LY3OO-112026-09-03 11:59:5354.8328924.11543135°62km/h10419m3.8m/s-55.9°C53.5%0hPa0V00:00:0000:00:0000:00:00
LY3OO-112026-09-03 11:59:3354.8344824.11107116°64km/h10314m3.6m/s-55.6°C56.1%0hPa0V00:00:0000:00:0000:00:00
LY3OO-112026-09-03 11:59:1254.8355824.10618117°55km/h10205m3.7m/s-55.0°C61.5%0hPa0V00:00:0000:00:0000:00:00
LY3OO-112026-09-03 11:58:5254.8370924.10138126°47km/h10085m2.9m/s-54.7°C73.3%0hPa0V00:00:0000:00:0000:00:00
LY3OO-112026-09-03 11:58:3054.8384024.09683117°66km/h9979m5.1m/s-53.8°C71.1%0hPa0V00:00:0000:00:0000:00:00
LY3OO-112026-09-03 11:58:1154.8396624.09187122°68km/h9877m4.6m/s-53.0°C71.9%0hPa0V00:00:0000:00:0000:00:00
LY3OO-112026-09-03 11:57:5054.8412124.08651113°58km/h9759m3.8m/s-51.8°C62.0%0hPa0V00:00:0000:00:0000:00:00
LY3OO-112026-09-03 11:57:2854.8426824.08099109°71km/h9648m5.5m/s-50.7°C52.7%0hPa0V00:00:0000:00:0000:00:00
LY3OO-112026-09-03 11:57:0854.8438024.07527117°73km/h9537m3.4m/s-49.7°C51.8%0hPa0V00:00:0000:00:0000:00:00
LY3OO-112026-09-03 11:56:4654.8450524.06997122°64km/h9409m7.4m/s-48.6°C46.8%0hPa0V00:00:0000:00:0000:00:00
LY3OO-112026-09-03 11:56:2754.8462624.06503117°62km/h9290m5.3m/s-47.6°C46.9%0hPa0V00:00:0000:00:0000:00:00
LY3OO-112026-09-03 11:56:0654.8478324.06032109°58km/h9170m6.4m/s-46.6°C40.1%0hPa0V00:00:0000:00:0000:00:00
LY3OO-112026-09-03 11:55:4554.8493124.05542114°55km/h9052m7.4m/s-45.6°C30.1%0hPa0V00:00:0000:00:0000:00:00
LY3OO-112026-09-03 11:55:2554.8507224.05175130°46km/h8925m6.3m/s-44.4°C30.5%0hPa0V00:00:0000:00:0000:00:00
LY3OO-112026-09-03 11:55:0454.8521624.04782128°60km/h8810m3.5m/s-43.3°C30.6%0hPa0V00:00:0000:00:0000:00:00
LY3OO-112026-09-03 11:54:4454.8535324.04411117°53km/h8700m9.1m/s-42.3°C26.8%0hPa0V00:00:0000:00:0000:00:00
LY3OO-112026-09-03 11:54:2354.8553124.04066135°37km/h8565m5.1m/s-41.1°C24.4%0hPa0V00:00:0000:00:0000:00:00
LY3OO-112026-09-03 11:54:0254.8570824.03725126°46km/h8447m5.5m/s-39.9°C19.4%0hPa0V00:00:0000:00:0000:00:00
LY3OO-112026-09-03 11:53:4254.8584724.03388138°35km/h8340m7.5m/s-38.9°C16.6%0hPa0V00:00:0000:00:0000:00:00
LY3OO-112026-09-03 11:53:2154.8600024.03126131°42km/h8227m4.0m/s-37.9°C15.3%0hPa0V00:00:0000:00:0000:00:00
LY3OO-112026-09-03 11:53:0154.8616024.02819147°55km/h8131m10.2m/s-37.1°C13.2%0hPa0V00:00:0000:00:0000:00:00
LY3OO-112026-09-03 11:52:4054.8632924.02534150°44km/h8010m5.8m/s-36.0°C11.9%0hPa0V00:00:0000:00:0000:00:00
LY3OO-112026-09-03 11:52:2054.8649824.02291137°31km/h7894m5.1m/s-35.1°C10.9%0hPa0V00:00:0000:00:0000:00:00
LY3OO-112026-09-03 11:52:0054.8664724.02063151°44km/h7771m8.5m/s-34.1°C9.8%0hPa0V00:00:0000:00:0000:00:00
LY3OO-112026-09-03 11:51:3954.8676824.01860136°22km/h7648m5.2m/s-33.1°C9.3%0hPa0V00:00:0000:00:0000:00:00
LY3OO-112026-09-03 11:51:1754.8693924.01702135°49km/h7532m4.8m/s-32.1°C9.0%0hPa0V00:00:0000:00:0000:00:00
LY3OO-112026-09-03 11:50:5754.8707724.01463136°44km/h7407m4.5m/s-31.4°C9.0%0hPa0V00:00:0000:00:0000:00:00
LY3OO-112026-09-03 11:50:3654.8722524.01269150°35km/h7338m7.0m/s-30.7°C8.8%0hPa0V00:00:0000:00:0000:00:00
LY3OO-112026-09-03 11:50:1554.8732924.01080134°33km/h7218m7.1m/s-30.1°C7.5%0hPa0V00:00:0000:00:0000:00:00
LY3OO-112026-09-03 11:49:5554.8740124.00875113°26km/h7090m5.9m/s-29.0°C7.7%0hPa0V00:00:0000:00:0000:00:00
LY3OO-112026-09-03 11:49:3454.8747024.00643126°42km/h6971m9.1m/s-28.1°C8.0%0hPa0V00:00:0000:00:0000:00:00
LY3OO-112026-09-03 11:49:1354.8756224.00320105°44km/h6841m7.9m/s-27.3°C7.2%0hPa0V00:00:0000:00:0000:00:00
LY3OO-112026-09-03 11:48:5454.8768824.00000122°33km/h6725m6.9m/s-26.6°C9.7%0hPa0V00:00:0000:00:0000:00:00
LY3OO-112026-09-03 11:48:3354.8775423.99694107°44km/h6608m5.4m/s-25.6°C12.7%0hPa0V00:00:0000:00:0000:00:00
LY3OO-112026-09-03 11:48:1254.8782323.99405117°38km/h6487m6.1m/s-24.7°C18.5%0hPa0V00:00:0000:00:0000:00:00
LY3OO-112026-09-03 11:47:5254.8789223.99064105°53km/h6366m7.1m/s-24.1°C30.7%0hPa0V00:00:0000:00:0000:00:00
LY3OO-112026-09-03 11:47:3254.8797223.98662105°44km/h6258m8.3m/s-23.4°C41.4%0hPa0V00:00:0000:00:0000:00:00
LY3OO-112026-09-03 11:47:1254.8803123.98308115°37km/h6132m5.8m/s-22.3°C44.9%0hPa0V00:00:0000:00:0000:00:00
LY3OO-112026-09-03 11:46:5154.8807623.97969113°31km/h6007m7.2m/s-21.3°C45.4%0hPa0V00:00:0000:00:0000:00:00
LY3OO-112026-09-03 11:46:3154.8810823.9764387°35km/h5886m7.6m/s-20.1°C42.7%0hPa0V00:00:0000:00:0000:00:00
LY3OO-112026-09-03 11:46:1154.8812323.9734085°27km/h5755m6.1m/s-19.0°C34.3%0hPa0V00:00:0000:00:0000:00:00
LY3OO-112026-09-03 11:45:4954.8815623.97029101°44km/h5628m7.5m/s-17.8°C28.4%0hPa0V00:00:0000:00:0000:00:00
LY3OO-112026-09-03 11:45:3054.8818923.96696102°42km/h5507m5.9m/s-16.9°C14.9%0hPa0V00:00:0000:00:0000:00:00
LY3OO-112026-09-03 11:45:0854.8823023.96374108°35km/h5388m8.9m/s-16.5°C43.1%0hPa0V00:00:0000:00:0000:00:00
LY3OO-112026-09-03 11:44:4754.8824623.9604590°40km/h5260m6.5m/s-15.5°C47.7%0hPa0V00:00:0000:00:0000:00:00
LY3OO-112026-09-03 11:44:2754.8825823.95708102°37km/h5134m7.0m/s-14.6°C49.6%0hPa0V00:00:0000:00:0000:00:00
LY3OO-112026-09-03 11:44:0554.8829723.9535399°42km/h5002m6.8m/s-13.6°C50.7%0hPa0V00:00:0000:00:0000:00:00
LY3OO-112026-09-03 11:43:4554.8832823.94986110°40km/h4876m8.1m/s-12.8°C60.3%0hPa0V00:00:0000:00:0000:00:00
LY3OO-112026-09-03 11:43:2354.8837723.9461897°35km/h4742m6.6m/s-12.1°C66.7%0hPa0V00:00:0000:00:0000:00:00
LY3OO-112026-09-03 11:43:0454.8842823.94224103°51km/h4615m6.8m/s-11.2°C70.4%0hPa0V00:00:0000:00:0000:00:00
LY3OO-112026-09-03 11:42:4354.8847223.9381699°40km/h4489m6.1m/s-10.5°C75.2%0hPa0V00:00:0000:00:0000:00:00
LY3OO-112026-09-03 11:42:2354.8851923.93425114°46km/h4370m7.3m/s-9.8°C61.0%0hPa0V00:00:0000:00:0000:00:00
LY3OO-112026-09-03 11:42:0254.8856223.93083102°33km/h4247m7.1m/s-8.8°C58.1%0hPa0V00:00:0000:00:0000:00:00
LY3OO-112026-09-03 11:41:4154.8860323.92790111°29km/h4117m7.4m/s-7.9°C55.5%0hPa0V00:00:0000:00:0000:00:00
LY3OO-112026-09-03 11:41:1954.8866223.92491107°37km/h3997m7.9m/s-7.1°C60.4%0hPa0V00:00:0000:00:0000:00:00
LY3OO-112026-09-03 11:40:5954.8868923.92192103°33km/h3881m8.1m/s-7.1°C81.5%0hPa0V00:00:0000:00:0000:00:00
LY3OO-112026-09-03 11:40:3954.8870323.9190697°35km/h3758m6.0m/s-6.0°C82.6%0hPa0V00:00:0000:00:0000:00:00
LY3OO-112026-09-03 11:40:1854.8871123.9162394°33km/h3646m6.1m/s-5.1°C76.2%0hPa0V00:00:0000:00:0000:00:00
LY3OO-112026-09-03 11:39:5854.8871423.91342103°31km/h3527m6.9m/s-4.7°C64.6%0hPa0V00:00:0000:00:0000:00:00
LY3OO-112026-09-03 11:39:3754.8876223.9106995°31km/h3406m6.2m/s-4.5°C90.9%0hPa0V00:00:0000:00:0000:00:00
LY3OO-112026-09-03 11:39:1854.8880223.9079593°18km/h3295m6.0m/s-4.1°C93.3%0hPa0V00:00:0000:00:0000:00:00
LY3OO-112026-09-03 11:38:5754.8880423.9056391°22km/h3169m5.7m/s-3.0°C88.0%0hPa0V00:00:0000:00:0000:00:00
LY3OO-112026-09-03 11:38:3654.8880423.9033999°22km/h3047m6.5m/s-2.3°C87.7%0hPa0V00:00:0000:00:0000:00:00
LY3OO-112026-09-03 11:38:1454.8883923.90118103°27km/h2926m7.5m/s-1.9°C91.0%0hPa0V00:00:0000:00:0000:00:00
LY3OO-112026-09-03 11:37:5454.8888123.8989595°22km/h2806m5.8m/s-1.0°C89.6%0hPa0V00:00:0000:00:0000:00:00
LY3OO-112026-09-03 11:37:3354.8890823.8966996°24km/h2678m6.7m/s-0.0°C84.5%0hPa0V00:00:0000:00:0000:00:00
LY3OO-112026-09-03 11:37:1254.8892423.89453102°29km/h2555m7.2m/s0.8°C83.6%0hPa0V00:00:0000:00:0000:00:00
LY3OO-112026-09-03 11:36:5354.8894023.8921699°29km/h2436m5.8m/s1.6°C81.7%0hPa0V00:00:0000:00:0000:00:00
LY3OO-112026-09-03 11:36:3254.8895623.88951102°26km/h2316m5.5m/s1.9°C80.5%0hPa0V00:00:0000:00:0000:00:00
LY3OO-112026-09-03 11:36:1154.8898423.8865193°29km/h2193m6.2m/s3.2°C0%0hPa0V00:00:0000:00:0000:00:00
LY3OO-112026-09-03 11:35:5154.8902123.8837095°35km/h2027m8.6m/s3.9°C0%0hPa0V00:00:0000:00:0000:00:00
LY3OO-112026-09-03 11:35:2954.8900523.8803689°37km/h1879m6.0m/s4.7°C0%0hPa0V00:00:0000:00:0000:00:00
LY3OO-112026-09-03 11:35:0854.8897523.87698101°42km/h1756m6.9m/s5.5°C0%0hPa0V00:00:0000:00:0000:00:00
LY3OO-112026-09-03 11:34:4854.8899023.8735182°40km/h1650m6.6m/s6.1°C0%0hPa0V00:00:0000:00:0000:00:00
LY3OO-112026-09-03 11:34:2754.8897723.8701182°33km/h1521m7.8m/s7.2°C92.3%0hPa0V00:00:0000:00:0000:00:00
LY3OO-112026-09-03 11:34:0654.8894023.8671978°35km/h1374m7.1m/s8.4°C87.7%0hPa0V00:00:0000:00:0000:00:00
LY3OO-112026-09-03 11:33:4654.8890523.8642381°35km/h1253m6.6m/s9.3°C87.2%0hPa0V00:00:0000:00:0000:00:00
LY3OO-112026-09-03 11:33:2654.8885223.8610974°33km/h1129m6.7m/s10.4°C83.0%0hPa0V00:00:0000:00:0000:00:00
LY3OO-112026-09-03 11:33:0454.8879823.8579676°38km/h1001m6.6m/s11.6°C0%0hPa0V00:00:0000:00:0000:00:00
LY3OO-112026-09-03 11:32:4454.8874123.8549076°33km/h884m4.8m/s12.6°C0%0hPa0V00:00:0000:00:0000:00:00


GPX KML Map

© wettersonde.net (DO2JMG) - 2026  -  -